Regional Weather Roundup
Issued by NWS Little Rock, AR

Home | Current Version | Previous Version | Graphics & Text | Print | Product List | Glossary On
Versions: 1 2 3 4 5 6 7 8 9 10 11 12 13 14 15 16 17 18 19 20 21 22 23 24 25 26 27 28 29 30 31 32 33 34 35 36 37 38 39 40 41 42 43 44 45 46 47 48 49 50
000
ASUS44 KLZK 040005
RWRLZK

WEATHER ROUNDUP FOR ARKANSAS
NATIONAL WEATHER SERVICE LITTLE ROCK AR
700 PM CDT THU SEP 03 2015

NOTE: "FAIR" INDICATES FEW OR NO CLOUDS BELOW 12,000 FEET WITH NO
SIGNIFICANT WEATHER AND/OR OBSTRUCTIONS TO VISIBILITY.

ARZ001-003-010-029-040100-
NORTHWEST ARKANSAS

CITY           SKY/WX    TMP DP  RH WIND       PRES   REMARKS
FAYETTEVILLE   CLEAR     83  69  62 SE3       29.94F HX  86
6HR MIN TEMP:  83; 6HR MAX TEMP:  88;

FORT SMITH     PTCLDY    89  67  47 NE9       29.87F HX  92
6HR MIN TEMP:  88; 6HR MAX TEMP:  94;

HARRISON       CLEAR     83  69  62 S3        29.96S HX  86
6HR MIN TEMP:  83; 6HR MAX TEMP:  89;

BENTONVILLE    CLEAR     84  64  51 SW6       29.96S HX  86
6HR MIN TEMP:  84; 6HR MAX TEMP:  90;

ROGERS         CLEAR     85  66  53 SW5       29.96S HX  87
6HR MIN TEMP:  85; 6HR MAX TEMP:  88;

SILOAM SPGS    CLEAR     84  64  51 S5        29.93F HX  86
6HR MIN TEMP:  84; 6HR MAX TEMP:  90;

HIGHFILL       CLEAR     84  68  58 S6        29.94F HX  87
6HR MIN TEMP:  84; 6HR MAX TEMP:  88;

SPRINGDALE     CLEAR     86  66  51 S9        29.97F HX  88
$$

ARZ004-005-016-040100-
NORTH CENTRAL ARKANSAS

CITY           SKY/WX    TMP DP  RH WIND       PRES   REMARKS
BATESVILLE     PTCLDY    88  70  55 E6        29.92S HX  92
6HR MIN TEMP:  88; 6HR MAX TEMP:  93;

FLIPPIN        PTCLDY    88  64  45 CALM      29.91S HX  89
6HR MIN TEMP:  88; 6HR MAX TEMP:  91;

MTN HOME       CLEAR     83  72  69 CALM      29.93S HX  88
6HR MIN TEMP:  83; 6HR MAX TEMP:  90;

$$

ARZ040-041-040100-
WEST CENTRAL ARKANSAS

CITY           SKY/WX    TMP DP  RH WIND       PRES   REMARKS
MENA           CLEAR     90  63  40 CALM      29.93S HX  90
MOUNT IDA      CLEAR     89  64  43 CALM      29.90S HX  90
6HR MIN TEMP:  89; 6HR MAX TEMP:  95;

$$

ARZ009-017-025-026-028-040100-
NORTHEAST ARKANSAS

CITY           SKY/WX    TMP DP  RH WIND       PRES   REMARKS
JONESBORO      CLEAR     84  71  65 SW5       29.91F HX  89
6HR MIN TEMP:  84; 6HR MAX TEMP:  91;

NEWPORT        CLEAR     87  73  62 CALM      29.92F HX  94
6HR MIN TEMP:  87; 6HR MAX TEMP:  93;

WALNUT RIDGE   CLEAR     88  68  51 S8        29.91S HX  91
6HR MIN TEMP:  88; 6HR MAX TEMP:  91;

BLYTHEVILLE    CLEAR     85  76  74 N3        29.92S HX  94
6HR MIN TEMP:  85; 6HR MAX TEMP:  94;

$$

ARZ022-023-033-042-044-040100-
CENTRAL ARKANSAS

CITY           SKY/WX    TMP DP  RH WIND       PRES   REMARKS
LITTLE ROCK    PTCLDY    91  67  44 SE6       29.90S HX  94
6HR MIN TEMP:  91; 6HR MAX TEMP:  96;

N LITTLE ROCK  PTCLDY    88  70  54 SE5       29.90S HX  93
6HR MIN TEMP:  88; 6HR MAX TEMP:  94;

JACKSONVILLE   PTCLDY    90  67  46 E6        29.90S HX  93
6HR MIN TEMP:  90; 6HR MAX TEMP:  94; 6HR PCP: TRACE;

SEARCY         PTCLDY    89  71  55 SE5       29.92S HX  95
6HR MIN TEMP:  89; 6HR MAX TEMP:  96;

HOT SPRINGS    CLEAR     90  66  45 S6        29.91S HX  92
6HR MIN TEMP:  89; 6HR MAX TEMP:  94;

RUSSELLVILLE   CLEAR     89  68  49 CALM      29.89S HX  93
6HR MIN TEMP:  89; 6HR MAX TEMP:  93;

$$

ARZ036-040100-
EAST ARKANSAS

CITY           SKY/WX    TMP DP  RH WIND       PRES   REMARKS
WEST MEMPHIS   PTCLDY    83  74  74 CALM      29.90S HX  89
6HR MIN TEMP:  83; 6HR MAX TEMP:  92;

$$

ARZ050-053-066-070-073-040100-
SOUTHWEST ARKANSAS

CITY           SKY/WX    TMP DP  RH WIND       PRES   REMARKS
ARKADELPHIA    FAIR      91  71  51 CALM      29.89F HX  97
6HR MIN TEMP:  91; 6HR MAX TEMP:  97;

CAMDEN         CLEAR     91  64  40 CALM      29.88S HX  93
TEXARKANA      CLEAR     89  66  46 S6        29.89F HX  91
6HR MIN TEMP:  89; 6HR MAX TEMP:  94;

EL DORADO      CLEAR     90  67  46 NE5       29.88F HX  93
6HR MIN TEMP:  90; 6HR MAX TEMP:  96;

DE QUEEN       CLEAR     89  68  49 SE7       29.87F HX  93
6HR MIN TEMP:  89; 6HR MAX TEMP:  94;

$$

ARZ056-057-069-040100-
SOUTHEAST ARKANSAS

CITY           SKY/WX    TMP DP  RH WIND       PRES   REMARKS
PINE BLUFF     CLEAR     84  71  65 E5        29.90S HX  89
6HR MIN TEMP:  84; 6HR MAX TEMP:  93; 6HR PCP: TRACE;

STUTTGART      CLEAR     90  66  45 E5        29.91S HX  92
6HR MIN TEMP:  90; 6HR MAX TEMP:  93;

MONTICELLO     PTCLDY    90  73  57 CALM      29.89S HX  98
6HR MIN TEMP:  89; 6HR MAX TEMP:  95;


$$





USA.gov is the U.S. government's official web portal to all federal, state and local government web resources and services.